Stündliche Wetter Bolshie Motykaly

Heute, 16 Juni, Mittwoch

Zeit Temperatur Niederschläge Wind Luftdruck Luftfeuchtigkeit
00:00 +16°C° 0 mm 2 m/S 750 mmHg 91%
01:00 +16°C° 0 mm 2 m/S 751 mmHg 92%
02:00 +16°C° 0 mm 2 m/S 751 mmHg 93%
03:00 +15°C° 0 mm 2 m/S 751 mmHg 94%
04:00 +15°C° 0 mm 2 m/S 751 mmHg 95%
05:00 +14°C° 0 mm 2 m/S 751 mmHg 96%
06:00 +15°C° 0 mm 2 m/S 752 mmHg 85%
07:00 +16°C° 0 mm 3 m/S 752 mmHg 74%
08:00 +17°C° 0 mm 3 m/S 752 mmHg 64%
09:00 +18°C° 0 mm 2 m/S 752 mmHg 60%
10:00 +20°C° 0 mm 2 m/S 752 mmHg 57%
11:00 +21°C° 0 mm 2 m/S 752 mmHg 53%
12:00 +21°C° 0 mm 2 m/S 752 mmHg 51%
13:00 +22°C° 0 mm 3 m/S 752 mmHg 49%
14:00 +24°C° 0 mm 3 m/S 752 mmHg 47%
15:00 +24°C° 0 mm 3 m/S 752 mmHg 47%
16:00 +24°C° 0 mm 3 m/S 752 mmHg 47%
17:00 +24°C° 0 mm 3 m/S 752 mmHg 47%
18:00 +21°C° 0 mm 3 m/S 752 mmHg 55%
19:00 +19°C° 0 mm 3 m/S 752 mmHg 64%
20:00 +18°C° 0 mm 2 m/S 752 mmHg 73%
21:00 +17°C° 0 mm 2 m/S 753 mmHg 75%
22:00 +16°C° 0 mm 2 m/S 753 mmHg 77%
23:00 +14°C° 0 mm 2 m/S 753 mmHg 79%

Morgen, 17 Juni, Donnerstag

Zeit Temperatur Niederschläge Wind Luftdruck Luftfeuchtigkeit
00:00 +14°C° 0 mm 2 m/S 753 mmHg 82%
01:00 +13°C° 0 mm 2 m/S 754 mmHg 85%
02:00 +13°C° 0 mm 2 m/S 754 mmHg 87%
03:00 +13°C° 0 mm 2 m/S 754 mmHg 87%
04:00 +13°C° 0 mm 2 m/S 754 mmHg 87%
05:00 +12°C° 0 mm 2 m/S 754 mmHg 87%
06:00 +14°C° 0 mm 2 m/S 754 mmHg 81%
07:00 +16°C° 0 mm 2 m/S 754 mmHg 74%
08:00 +18°C° 0 mm 2 m/S 755 mmHg 68%
09:00 +20°C° 0 mm 3 m/S 755 mmHg 65%
10:00 +21°C° 0 mm 3 m/S 755 mmHg 62%
11:00 +24°C° 0 mm 3 m/S 755 mmHg 58%
12:00 +25°C° 0 mm 3 m/S 755 mmHg 56%
13:00 +25°C° 0 mm 3 m/S 755 mmHg 53%
14:00 +26°C° 0 mm 3 m/S 754 mmHg 51%
15:00 +26°C° 0 mm 3 m/S 754 mmHg 52%
16:00 +26°C° 0 mm 3 m/S 754 mmHg 54%
17:00 +26°C° 0 mm 4 m/S 754 mmHg 56%
18:00 +25°C° 0 mm 3 m/S 754 mmHg 63%
19:00 +22°C° 0 mm 3 m/S 754 mmHg 70%
20:00 +21°C° 0 mm 3 m/S 754 mmHg 77%
21:00 +20°C° 0 mm 3 m/S 754 mmHg 77%
22:00 +19°C° 0 mm 3 m/S 755 mmHg 78%
23:00 +18°C° 0 mm 3 m/S 755 mmHg 78%

übermorgen, 18 Juni, Freitag

Zeit Temperatur Niederschläge Wind Luftdruck Luftfeuchtigkeit
00:00 +18°C° 0 mm 3 m/S 755 mmHg 81%
01:00 +17°C° 0 mm 3 m/S 755 mmHg 83%
02:00 +17°C° 0 mm 3 m/S 754 mmHg 86%
03:00 +17°C° 0 mm 3 m/S 754 mmHg 88%
04:00 +17°C° 0 mm 3 m/S 754 mmHg 91%
05:00 +17°C° 0 mm 2 m/S 755 mmHg 94%
06:00 +19°C° 0 mm 3 m/S 755 mmHg 87%
07:00 +21°C° 0 mm 4 m/S 755 mmHg 81%
08:00 +23°C° 0 mm 4 m/S 755 mmHg 75%
09:00 +25°C° 0 mm 4 m/S 755 mmHg 70%
10:00 +26°C° 0 mm 4 m/S 755 mmHg 65%
11:00 +27°C° 0 mm 4 m/S 755 mmHg 59%
12:00 +28°C° 0 mm 4 m/S 755 mmHg 58%
13:00 +28°C° 0 mm 4 m/S 755 mmHg 56%
14:00 +29°C° 0 mm 5 m/S 754 mmHg 54%
15:00 +29°C° 0 mm 4 m/S 754 mmHg 56%
16:00 +28°C° 0 mm 4 m/S 754 mmHg 58%
17:00 +28°C° 0 mm 4 m/S 754 mmHg 59%
18:00 +26°C° 0 mm 4 m/S 754 mmHg 65%
19:00 +25°C° 0 mm 4 m/S 754 mmHg 71%
20:00 +22°C° 0 mm 3 m/S 754 mmHg 77%
21:00 +21°C° 0 mm 3 m/S 754 mmHg 79%
22:00 +19°C° 0 mm 3 m/S 754 mmHg 81%
23:00 +18°C° 0 mm 3 m/S 754 mmHg 83%

19 Juni, Samstag

Zeit Temperatur Niederschläge Wind Luftdruck Luftfeuchtigkeit
00:00 +18°C° 0 mm 3 m/S 754 mmHg 84%
01:00 +18°C° 0 mm 3 m/S 754 mmHg 86%
02:00 +17°C° 0 mm 2 m/S 754 mmHg 88%
03:00 +17°C° 0 mm 3 m/S 754 mmHg 90%
04:00 +17°C° 0 mm 3 m/S 755 mmHg 92%
05:00 +17°C° 0 mm 3 m/S 755 mmHg 94%
06:00 +19°C° 0 mm 3 m/S 755 mmHg 89%
07:00 +21°C° 0 mm 4 m/S 755 mmHg 83%
08:00 +23°C° 0 mm 4 m/S 755 mmHg 77%
09:00 +25°C° 0 mm 4 m/S 755 mmHg 73%
10:00 +26°C° 0 mm 5 m/S 755 mmHg 68%
11:00 +27°C° 0 mm 5 m/S 754 mmHg 63%
12:00 +28°C° 0 mm 5 m/S 754 mmHg 62%
13:00 +28°C° 0 mm 5 m/S 754 mmHg 62%
14:00 +28°C° 0 mm 5 m/S 754 mmHg 61%
15:00 +28°C° 0 mm 4 m/S 754 mmHg 64%
16:00 +27°C° 0 mm 3 m/S 754 mmHg 66%
17:00 +27°C° 0 mm 3 m/S 753 mmHg 69%
18:00 +26°C° 0 mm 3 m/S 753 mmHg 72%
19:00 +25°C° 0 mm 2 m/S 753 mmHg 74%
20:00 +25°C° 0 mm 2 m/S 753 mmHg 77%
21:00 +23°C° 0 mm 2 m/S 753 mmHg 80%
22:00 +21°C° 0 mm 3 m/S 753 mmHg 83%
23:00 +20°C° 0 mm 3 m/S 753 mmHg 87%

20 Juni, Sonntag

Zeit Temperatur Niederschläge Wind Luftdruck Luftfeuchtigkeit
00:00 +19°C° 0 mm 3 m/S 753 mmHg 88%
01:00 +18°C° 0 mm 3 m/S 753 mmHg 89%
02:00 +18°C° 0 mm 3 m/S 753 mmHg 90%
03:00 +18°C° 0 mm 2 m/S 753 mmHg 91%
04:00 +17°C° 0 mm 2 m/S 753 mmHg 92%
05:00 +17°C° 0 mm 2 m/S 753 mmHg 93%
06:00 +19°C° 0 mm 3 m/S 753 mmHg 87%
07:00 +21°C° 0 mm 3 m/S 753 mmHg 81%
08:00 +23°C° 0 mm 4 m/S 753 mmHg 75%
09:00 +25°C° 0 mm 4 m/S 753 mmHg 70%
10:00 +26°C° 0 mm 5 m/S 753 mmHg 65%
11:00 +27°C° 0 mm 5 m/S 752 mmHg 60%
12:00 +27°C° 0 mm 5 m/S 752 mmHg 60%
13:00 +28°C° 0 mm 4 m/S 752 mmHg 60%
14:00 +28°C° 0 mm 4 m/S 752 mmHg 61%
15:00 +28°C° 0 mm 4 m/S 752 mmHg 62%
16:00 +28°C° 0 mm 4 m/S 751 mmHg 63%
17:00 +27°C° 0 mm 4 m/S 751 mmHg 64%
18:00 +26°C° 0 mm 4 m/S 751 mmHg 69%
19:00 +25°C° 0 mm 3 m/S 751 mmHg 74%
20:00 +24°C° 0 mm 3 m/S 751 mmHg 80%
21:00 +22°C° 0 mm 3 m/S 751 mmHg 83%
22:00 +21°C° 0 mm 3 m/S 751 mmHg 87%
23:00 +20°C° 0 mm 3 m/S 751 mmHg 91%

21 Juni, Montag

Zeit Temperatur Niederschläge Wind Luftdruck Luftfeuchtigkeit
00:00 +20°C° 0 mm 3 m/S 751 mmHg 92%
01:00 +19°C° 0 mm 3 m/S 751 mmHg 93%
02:00 +19°C° 0 mm 3 m/S 751 mmHg 95%
03:00 +19°C° 0 mm 3 m/S 751 mmHg 95%
04:00 +19°C° 0 mm 3 m/S 751 mmHg 95%
05:00 +18°C° 0 mm 3 m/S 751 mmHg 95%
06:00 +20°C° 0 mm 3 m/S 751 mmHg 88%
07:00 +22°C° 0 mm 4 m/S 751 mmHg 81%
08:00 +23°C° 0 mm 4 m/S 751 mmHg 74%
09:00 +25°C° 0 mm 5 m/S 751 mmHg 69%
10:00 +27°C° 0 mm 5 m/S 751 mmHg 64%
11:00 +28°C° 0 mm 5 m/S 751 mmHg 58%
12:00 +28°C° 0 mm 5 m/S 750 mmHg 57%
13:00 +29°C° 0 mm 5 m/S 750 mmHg 55%
14:00 +29°C° 0 mm 5 m/S 750 mmHg 53%
15:00 +29°C° 0 mm 5 m/S 750 mmHg 54%
16:00 +29°C° 0 mm 5 m/S 750 mmHg 56%
17:00 +29°C° 0 mm 4 m/S 750 mmHg 57%
18:00 +27°C° 0 mm 4 m/S 749 mmHg 63%
19:00 +26°C° 0 mm 3 m/S 749 mmHg 69%
20:00 +24°C° 0 mm 3 m/S 749 mmHg 75%
21:00 +24°C° 0 mm 3 m/S 749 mmHg 76%
22:00 +22°C° 0 mm 3 m/S 749 mmHg 76%
23:00 +21°C° 0 mm 3 m/S 749 mmHg 77%
Mehr zeigen

Wir brauchen deine Erlaubnis

Meteoprog und unser Service Anbieter werden persönliche Daten aufbewahren, so wie Cookies, Geräte Bezeichnung oder ähnliche Technologien von deinem Gerät und Prozess, so wie Persönliche Daten Inhalte und Werbungen, genauso wie social Media und den Verkehr zu analysieren.

  • Aufbewahrung und/oder Zugang zu deiner Geräte Informationen.

    Cookies, Geräte Bezeichnung oder andere Informationen, können aufbewahrt oder Zugang zu deinem Gerät erhalten, für den Grund, der oben angegeben wird.

  • Personalisierte Werbung und Inhalte, Messungen, Einblick in das Publikum und Produkt Entwicklung.

    Werbungen und Inhalte können personalisiert werden, basierend auf ein Profil. Mehr Daten können besser personalisierte Werbungen und Inhalte hinzufügen. Werbung und Inhalte können gezeigt und gemessen werden. Einblicke über das Publikum, welche die Werbung gesehen haben und den Inhalt, können abgeleitet werden. So wie Daten können genutzt werden, um es zu verbessern oder die Benutzer Erfahrung zu verbessern das System und die Software.

Wenn du “Ich stimme zu” klickst, erlaubst du uns, die Cookies zu benutzen die Geräte Bezeichnung, den Web oder ähnliche Technologien zu benutzen. Deine Settings, können in deinem Gerät bei deinem Browser geändert werden.

Für den bestimmten Zweck, berechtigten Interessen beruhen darauf, mehr als auf den Inhalt. Du kannst mehr darüber in unseren Privaten und Cookie Politik lesen.